Back to catalog

GHGSAT-C5

AliveScienceSSO
NORAD 52744·PAYLOAD·🇨🇦 Canada

Launched May 25, 2022 from Cape Canaveral Space Force Station

Loading…

Next Passes (next 24 hours)

TLE

FreshSource: Space-Track

Epoch: Sep 14, 2026, 20:34 UTC

1 52744U 22057N   26257.85710677  .00005758  00000-0  17039-3 0  9999
2 52744  97.6812  48.6865 0007180 150.9985 209.1658 15.35301900239290

Track GHGSAT-C5 in real time with AllMySat

Download on the App Store